DW2513 Weather Reports


Display with metric or nautical units.
time (UTC)temp
F
wind
direction
speed
MPH
gust
MPH
rain 1hr
in
rain 24hr
in
rain mn
in
humidity
%
barometer
mb
20260831121304 58 56 0.0 2.0 0.00 0.00 0.00 87 1017.3
20260831120805 58 59 1.0 3.0 0.00 0.00 0.00 87 1017.3
20260831114804 58 35 0.0 0.0 0.00 0.00 0.00 86 1016.7
20260831114305 58 35 0.0 0.0 0.00 0.00 0.00 86 1016.7
20260831113805 58 35 0.0 1.0 0.00 0.00 0.00 86 1016.7
20260831113304 57 52 1.0 3.0 0.00 0.00 0.00 86 1016.7
20260831112307 57 267 0.0 0.0 0.00 0.00 0.00 86 1016.7
20260831111304 58 267 0.0 0.0 0.00 0.00 0.00 86 1016.7
20260831110804 57 267 0.0 0.0 0.00 0.00 0.00 86 1016.7
20260831110304 57 267 0.0 0.0 0.00 0.00 0.00 86 1016.7
20260831105805 57 267 0.0 0.0 0.00 0.00 0.00 86 1016.7
20260831105306 57 209 0.0 0.0 0.00 0.00 0.00 86 1016.4
20260831104804 57 169 0.0 0.0 0.00 0.00 0.00 86 1016.4
20260831104304 57 169 0.0 0.0 0.00 0.00 0.00 85 1016.4
20260831101804 57 169 0.0 0.0 0.00 0.00 0.00 85 1016.4
20260831101304 57 169 0.0 0.0 0.00 0.00 0.00 85 1016.4
20260831100804 57 159 0.0 1.0 0.00 0.00 0.00 85 1016.4
20260831100304 57 113 0.0 0.0 0.00 0.00 0.00 85 1016.4
20260831093805 57 113 0.0 0.0 0.00 0.00 0.00 84 1016.2
20260831092805 57 113 0.0 0.0 0.00 0.00 0.00 84 1016.2
20260831090804 57 113 0.0 0.0 0.00 0.00 0.00 84 1016.2
20260831085805 58 113 0.0 0.0 0.00 0.00 0.00 84 1015.9
20260831085306 58 113 0.0 0.0 0.00 0.00 0.00 84 1015.9
20260831084804 58 113 0.0 0.0 0.00 0.00 0.00 84 1015.9
20260831083804 58 113 0.0 0.0 0.00 0.00 0.00 83 1015.9
20260831081804 59 113 0.0 0.0 0.00 0.00 0.00 83 1015.8
20260831080804 59 113 0.0 0.0 0.00 0.00 0.00 83 1015.8
20260831074305 60 113 0.0 0.0 0.00 0.00 0.00 82 1015.3
20260831073804 60 113 0.0 0.0 0.00 0.00 0.00 82 1015.3
20260831072306 60 113 0.0 0.0 0.00 0.00 0.00 82 1015.3
20260831070304 61 113 0.0 0.0 0.00 0.00 0.00 81 1015.3
20260831065805 61 113 0.0 0.0 0.00 0.00 0.00 81 1015.2
20260831064805 62 113 0.0 0.0 0.00 0.00 0.00 81 1015.2
20260831063805 62 113 0.0 0.0 0.00 0.00 0.00 81 1015.3
20260831063304 62 113 0.0 0.0 0.00 0.00 0.00 81 1015.3
20260831061805 62 113 0.0 0.0 0.00 0.00 0.00 81 1015.3
20260831060805 63 113 0.0 0.0 0.00 0.00 0.00 81 1015.3
20260831055306 63 113 0.0 0.0 0.00 0.00 0.00 80 1015.3
20260831053805 63 113 0.0 0.0 0.00 0.00 0.00 79 1014.8
20260831052805 63 113 0.0 0.0 0.00 0.00 0.00 78 1014.8
20260831052307 64 113 0.0 0.0 0.00 0.00 0.00 78 1014.8
20260831051804 64 113 0.0 0.0 0.00 0.00 0.00 78 1014.8
20260831051304 64 113 0.0 0.0 0.00 0.00 0.00 77 1014.8
20260831050304 64 113 0.0 0.0 0.00 0.00 0.00 77 1014.8
20260831045306 64 113 0.0 0.0 0.00 0.00 0.00 77 1014.8
20260831044304 64 113 0.0 0.0 0.00 0.00 0.00 76 1014.8
20260831043804 64 113 0.0 0.0 0.00 0.00 0.00 76 1014.8
20260831043304 64 113 0.0 0.0 0.00 0.00 0.00 75 1014.8
20260831042307 65 113 0.0 0.0 0.00 0.00 0.00 75 1014.7
20260831041805 65 113 0.0 0.0 0.00 0.00 0.00 75 1014.6
20260831041305 65 113 0.0 0.0 0.00 0.00 0.00 75 1014.6
20260831040822 65 113 0.0 0.0 0.00 0.00 0.00 74 1014.6
20260831040305 65 113 0.0 0.0 0.00 0.00 0.00 74 1014.5
20260831035307 65 113 0.0 0.0 0.00 0.00 0.00 73 1014.6
20260831034305 66 113 0.0 0.0 0.00 0.00 0.00 73 1014.6
20260831033305 66 113 0.0 0.0 0.00 0.00 0.00 73 1014.6
20260831032805 66 113 0.0 0.0 0.00 0.00 0.00 73 1014.6
20260831032306 66 113 0.0 0.0 0.00 0.00 0.00 73 1014.6
20260831031804 66 113 0.0 0.0 0.00 0.00 0.00 73 1014.6
20260831031305 66 113 0.0 0.0 0.00 0.00 0.00 72 1014.6
20260831030305 67 113 0.0 0.0 0.00 0.00 0.00 71 1014.3
20260831022306 68 101 0.0 0.0 0.00 0.00 0.00 69 1014.1
20260831021805 68 101 0.0 0.0 0.00 0.00 0.00 69 1014.1
20260831021304 68 101 0.0 0.0 0.00 0.00 0.00 68 1014.1
20260831015805 68 143 0.0 0.0 0.00 0.00 0.00 68 1014.1
20260831015306 69 143 0.0 0.0 0.00 0.00 0.00 67 1014.1
20260831010805 68 144 0.0 0.0 0.00 0.00 0.00 70 1012.5
20260831004805 68 144 0.0 0.0 0.00 0.00 0.00 71 1012.5
20260831004305 68 144 0.0 0.0 0.00 0.00 0.00 71 1012.5
20260831002805 69 144 0.0 0.0 0.00 0.00 0.00 70 1012.5
20260831001805 69 144 0.0 0.0 0.00 0.00 0.00 69 1012.5
20260831001305 70 144 0.0 1.0 0.00 0.00 0.00 67 1012.5
20260831000805 70 145 0.0 0.0 0.00 0.00 0.00 67 1012.5
20260830234805 69 0 0.0 0.0 0.00 0.00 0.00 68 1012.5
20260830234304 69 0 0.0 0.0 0.00 0.00 0.00 68 1012.5
20260830230304 69 0 0.0 0.0 0.00 0.00 0.00 71 1012.5
20260830225306 69 0 0.0 0.0 0.00 0.00 0.00 71 1012.5
20260830224804 69 0 0.0 0.0 0.00 0.00 0.00 70 1012.1
20260830223304 70 0 0.0 0.0 0.00 0.00 0.00 69 1012.1
20260830222804 70 0 0.0 0.0 0.00 0.00 0.00 69 1012.1
20260830222306 70 0 0.0 0.0 0.00 0.00 0.00 70 1012.1
20260830213805 71 0 0.0 0.0 0.00 0.00 0.00 64 1012.1
20260830213305 72 0 0.0 0.0 0.00 0.00 0.00 63 1012.1
20260830212306 71 0 0.0 0.0 0.00 0.00 0.00 62 1012.5
20260830211804 71 0 0.0 0.0 0.00 0.00 0.00 63 1012.5
20260830211304 71 0 0.0 0.0 0.00 0.00 0.00 63 1012.5
20260830210305 71 0 0.0 0.0 0.00 0.00 0.00 63 1012.5
20260830205306 72 0 0.0 0.0 0.00 0.00 0.00 64 1012.5
20260830204805 72 0 0.0 0.0 0.00 0.00 0.00 64 1012.5
20260830203805 72 0 0.0 0.0 0.00 0.00 0.00 64 1012.4
20260830203304 72 0 0.0 0.0 0.00 0.00 0.00 62 1013.0
20260830202804 71 0 0.0 0.0 0.00 0.00 0.00 62 1013.0
20260830202306 71 0 0.0 0.0 0.00 0.00 0.00 63 1013.0
20260830201305 71 0 0.0 0.0 0.00 0.00 0.00 62 1013.0
20260830195804 72 0 0.0 0.0 0.00 0.00 0.00 60 1013.0
20260830195305 72 0 0.0 0.0 0.00 0.00 0.00 60 1013.0
20260830192804 73 0 0.0 0.0 0.00 0.00 0.00 59 1013.6
20260830192305 73 0 0.0 0.0 0.00 0.00 0.00 59 1013.6
20260830190305 72 5 0.0 0.0 0.00 0.00 0.00 61 1013.6
20260830184804 72 5 0.0 0.0 0.00 0.00 0.00 60 1014.6
20260830183305 71 5 0.0 0.0 0.00 0.00 0.00 61 1014.6
20260830181804 70 5 0.0 0.0 0.00 0.00 0.00 67 1014.6
20260830180305 69 5 0.0 0.0 0.00 0.00 0.00 67 1014.6
20260830175805 69 5 0.0 0.0 0.00 0.00 0.00 67 1014.6
20260830175306 69 5 0.0 0.0 0.00 0.00 0.00 68 1015.2
20260830174805 69 5 0.0 0.0 0.00 0.00 0.00 68 1015.2
20260830173804 69 5 0.0 0.0 0.00 0.00 0.00 67 1015.2
20260830173304 69 5 0.0 0.0 0.00 0.00 0.00 68 1015.2
20260830170805 68 5 0.0 0.0 0.00 0.00 0.00 70 1015.2
20260830170304 68 5 0.0 0.0 0.00 0.00 0.00 70 1015.2
20260830165306 67 5 0.0 0.0 0.00 0.00 0.00 70 1015.2
20260830164805 67 5 0.0 0.0 0.00 0.00 0.00 71 1015.2
20260830164304 67 5 0.0 0.0 0.00 0.00 0.00 71 1015.7
20260830162306 67 5 0.0 0.0 0.00 0.00 0.00 71 1015.7
20260830161804 67 5 0.0 0.0 0.00 0.00 0.00 71 1015.7
20260830160305 67 5 0.0 0.0 0.00 0.00 0.00 70 1015.7
20260830155804 67 5 0.0 0.0 0.00 0.00 0.00 71 1016.2
20260830154804 66 14 0.0 2.0 0.00 0.00 0.00 72 1016.2
20260830154304 66 315 0.0 0.0 0.00 0.00 0.00 72 1016.2
20260830152804 66 312 0.0 0.0 0.00 0.00 0.00 72 1016.2
20260830151305 66 312 0.0 0.0 0.00 0.00 0.00 70 1016.2
20260830145805 66 312 0.0 0.0 0.00 0.00 0.00 69 1016.2
20260830143804 66 312 0.0 0.0 0.00 0.00 0.00 68 1016.2
20260830143310 66 312 0.0 0.0 0.00 0.00 0.00 69 1016.2
20260830141305 66 66 0.0 0.0 0.00 0.00 0.00 70 1016.2
20260830140305 65 66 0.0 0.0 0.00 0.00 0.00 69 1016.2
20260830135805 65 83 0.0 1.0 0.00 0.00 0.00 70 1016.1
20260830135306 65 84 0.0 0.0 0.00 0.00 0.00 71 1016.1
20260830133304 65 84 0.0 0.0 0.00 0.00 0.00 69 1016.1
20260830131804 65 126 0.0 0.0 0.00 0.00 0.00 69 1016.2
20260830130305 64 221 0.0 1.0 0.00 0.00 0.00 72 1016.2
20260830125805 63 223 0.0 0.0 0.00 0.00 0.00 73 1016.2
20260830124805 63 223 0.0 0.0 0.00 0.00 0.00 73 1016.6
20260830124304 63 223 0.0 0.0 0.00 0.00 0.00 74 1016.6
20260830123804 62 223 0.0 0.0 0.00 0.00 0.00 74 1016.6
20260830123304 62 223 0.0 1.0 0.00 0.00 0.00 73 1016.6